AAL1893 KBOS-KDCA

Flight info

Callsign AAL1893
Flight time 1h 11m
Altitude 34000
Route PATSS7 PATSS NELIE BIZEX Q75 MXE CLIPR3
Aircraft B738/M-SDE2E3FGHIRWXY/LB1

Departure

Time 2026-05-05 01:00
Airport Boston Logan International Airport (KBOS)

Arrival

Time 2026-05-05 02:11
Airport Ronald Reagan Washington National Airport (KDCA)
Time Latitude Longitude Altitude Speed Heading
2026-05-05 00:30 42.36124 -71.02080 17 ft 0 kts 346°
2026-05-05 00:41 42.36116 -71.02078 17 ft 2 kts 344°
2026-05-05 00:41 42.36101 -71.02072 17 ft 2 kts 345°
2026-05-05 00:42 42.36088 -71.02068 17 ft 1 kts 345°
2026-05-05 00:42 42.36074 -71.02063 17 ft 2 kts 347°
2026-05-05 00:42 42.36060 -71.02062 18 ft 2 kts 21°
2026-05-05 00:42 42.36047 -71.02074 17 ft 2 kts 55°
2026-05-05 00:43 42.36042 -71.02092 17 ft 2 kts 90°
2026-05-05 00:43 42.36044 -71.02106 17 ft 0 kts 115°
2026-05-05 00:43 42.36048 -71.02114 17 ft 0 kts 118°
2026-05-05 00:43 42.36048 -71.02115 17 ft 0 kts 118°
2026-05-05 00:46 42.36041 -71.02097 17 ft 6 kts 120°
2026-05-05 00:47 42.36017 -71.02042 18 ft 7 kts 121°
2026-05-05 00:47 42.35984 -71.01969 19 ft 10 kts 121°
2026-05-05 00:47 42.35947 -71.01890 19 ft 9 kts 122°
2026-05-05 00:47 42.35915 -71.01789 19 ft 14 kts 103°
2026-05-05 00:48 42.35895 -71.01662 19 ft 13 kts 101°
2026-05-05 00:48 42.35894 -71.01559 21 ft 9 kts 57°
2026-05-05 00:48 42.35970 -71.01508 19 ft 14 kts 19°
2026-05-05 00:48 42.36068 -71.01461 19 ft 16 kts 20°
2026-05-05 00:49 42.36185 -71.01405 19 ft 18 kts 19°
2026-05-05 00:49 42.36311 -71.01343 19 ft 19 kts 20°
2026-05-05 00:49 42.36402 -71.01300 19 ft 8 kts 19°
2026-05-05 00:49 42.36457 -71.01273 19 ft 7 kts 19°
2026-05-05 00:50 42.36508 -71.01249 19 ft 7 kts 19°
2026-05-05 00:50 42.36566 -71.01221 18 ft 9 kts 20°
2026-05-05 00:50 42.36608 -71.01200 17 ft 0 kts 19°
2026-05-05 00:52 42.36642 -71.01185 16 ft 12 kts 20°
2026-05-05 00:52 42.36730 -71.01142 16 ft 13 kts 12°
2026-05-05 00:53 42.36815 -71.01180 15 ft 13 kts 316°
2026-05-05 00:53 42.36863 -71.01229 16 ft 4 kts 349°
2026-05-05 00:53 42.36882 -71.01224 16 ft 4 kts 25°
2026-05-05 00:53 42.36930 -71.01170 16 ft 11 kts 41°
2026-05-05 00:54 42.37000 -71.01101 15 ft 12 kts 27°
2026-05-05 00:54 42.37084 -71.01046 14 ft 14 kts 25°
2026-05-05 00:54 42.37176 -71.00987 12 ft 12 kts 26°
2026-05-05 00:54 42.37186 -71.00980 12 ft 0 kts 26°
2026-05-05 00:55 42.37188 -71.00979 12 ft 1 kts 26°
2026-05-05 00:55 42.37251 -71.00937 12 ft 16 kts 26°
2026-05-05 00:55 42.37352 -71.00880 12 ft 15 kts 20°
2026-05-05 00:55 42.37440 -71.00838 12 ft 10 kts 20°
2026-05-05 00:56 42.37511 -71.00803 12 ft 11 kts 20°
2026-05-05 00:56 42.37565 -71.00777 12 ft 0 kts 19°
2026-05-05 00:56 42.37566 -71.00775 12 ft 2 kts 19°
2026-05-05 00:56 42.37621 -71.00750 12 ft 10 kts 19°
2026-05-05 00:57 42.37686 -71.00718 12 ft 8 kts 20°
2026-05-05 00:57 42.37698 -71.00712 12 ft 0 kts 19°
2026-05-05 00:57 42.37713 -71.00705 12 ft 1 kts 19°
2026-05-05 00:57 42.37723 -71.00700 12 ft 1 kts 19°
2026-05-05 00:58 42.37767 -71.00679 12 ft 14 kts 20°
2026-05-05 00:58 42.37835 -71.00589 12 ft 14 kts 92°
2026-05-05 00:58 42.37796 -71.00481 12 ft 12 kts 162°
2026-05-05 00:58 42.37763 -71.00485 12 ft 0 kts 199°
2026-05-05 00:59 42.37667 -71.00530 12 ft 48 kts 199°
2026-05-05 00:59 42.37089 -71.00812 14 ft 124 kts 199°
2026-05-05 00:59 42.36113 -71.01292 276 ft 163 kts 201°
2026-05-05 01:00 42.35066 -71.01819 1190 ft 165 kts 202°
2026-05-05 01:00 42.34003 -71.02131 2126 ft 161 kts 191°
2026-05-05 01:00 42.32851 -71.01823 2700 ft 186 kts 158°
2026-05-05 01:00 42.31974 -71.00359 3134 ft 222 kts 116°
2026-05-05 01:01 42.31517 -70.98301 3622 ft 241 kts 109°
2026-05-05 01:01 42.31222 -70.96026 4302 ft 251 kts 93°
2026-05-05 01:01 42.31411 -70.93629 4818 ft 269 kts 79°
2026-05-05 01:01 42.31789 -70.91111 5435 ft 281 kts 78°
2026-05-05 01:02 42.32183 -70.88470 6048 ft 294 kts 78°
2026-05-05 01:02 42.32576 -70.85740 6825 ft 299 kts 78°
2026-05-05 01:02 42.32954 -70.83003 7662 ft 302 kts 79°
2026-05-05 01:02 42.33081 -70.80190 8468 ft 306 kts 94°
2026-05-05 01:03 42.32510 -70.77436 9322 ft 306 kts 115°
2026-05-05 01:03 42.31438 -70.74983 10080 ft 309 kts 132°
2026-05-05 01:03 42.29791 -70.73138 10755 ft 314 kts 154°
2026-05-05 01:03 42.27746 -70.72166 11398 ft 315 kts 174°
2026-05-05 01:04 42.25580 -70.71980 12132 ft 312 kts 186°
2026-05-05 01:04 42.21476 -70.73473 13619 ft 308 kts 217°
2026-05-05 01:04 42.19875 -70.75321 13994 ft 303 kts 232°
2026-05-05 01:05 42.18617 -70.77680 14054 ft 325 kts 243°
2026-05-05 01:05 42.17721 -70.80490 14045 ft 329 kts 255°
2026-05-05 01:05 42.17216 -70.83495 14054 ft 330 kts 261°
2026-05-05 01:05 42.16839 -70.86562 14046 ft 330 kts 262°
2026-05-05 01:06 42.16491 -70.89593 14052 ft 333 kts 262°
2026-05-05 01:06 42.16116 -70.92718 14746 ft 339 kts 261°
2026-05-05 01:06 42.15746 -70.95802 15778 ft 335 kts 263°
2026-05-05 01:06 42.15453 -70.98886 16588 ft 338 kts 264°
2026-05-05 01:07 42.15195 -71.02052 17394 ft 341 kts 265°
2026-05-05 01:07 42.14943 -71.05209 18123 ft 345 kts 265°
2026-05-05 01:07 42.14677 -71.08431 18964 ft 346 kts 265°
2026-05-05 01:07 42.14404 -71.11616 19629 ft 351 kts 265°
2026-05-05 01:08 42.14114 -71.14883 20358 ft 354 kts 265°
2026-05-05 01:08 42.13816 -71.18207 20977 ft 360 kts 265°
2026-05-05 01:08 42.13516 -71.21518 21621 ft 364 kts 265°
2026-05-05 01:08 42.13207 -71.24917 22278 ft 367 kts 265°
2026-05-05 01:09 42.12897 -71.28323 22908 ft 371 kts 265°
2026-05-05 01:09 42.12580 -71.31791 23495 ft 375 kts 266°
2026-05-05 01:09 42.12262 -71.35261 24118 ft 378 kts 266°
2026-05-05 01:09 42.11940 -71.38741 24734 ft 381 kts 266°
2026-05-05 01:10 42.11609 -71.42320 25282 ft 385 kts 266°
2026-05-05 01:10 42.11276 -71.45906 25873 ft 387 kts 266°
2026-05-05 01:10 42.10945 -71.49466 26377 ft 391 kts 266°
2026-05-05 01:10 42.10606 -71.53092 26919 ft 394 kts 266°
2026-05-05 01:11 42.10262 -71.56763 27373 ft 399 kts 266°
2026-05-05 01:11 42.09914 -71.60459 27932 ft 400 kts 266°
2026-05-05 01:11 42.09562 -71.64195 28374 ft 405 kts 267°
2026-05-05 01:11 42.09205 -71.67960 28855 ft 408 kts 266°
2026-05-05 01:12 42.08843 -71.71735 29376 ft 410 kts 266°
2026-05-05 01:12 42.08388 -71.75567 29783 ft 416 kts 264°
2026-05-05 01:12 42.07840 -71.79401 30220 ft 420 kts 263°
2026-05-05 01:12 42.07251 -71.83213 30877 ft 418 kts 263°
2026-05-05 01:13 42.06652 -71.87009 31514 ft 415 kts 263°
2026-05-05 01:13 42.06059 -71.90771 32068 ft 415 kts 263°
2026-05-05 01:13 42.05474 -71.94537 32554 ft 415 kts 263°
2026-05-05 01:13 42.04888 -71.98344 33074 ft 415 kts 263°
2026-05-05 01:14 42.04310 -72.02138 33586 ft 414 kts 264°
2026-05-05 01:14 42.03742 -72.05886 33919 ft 416 kts 264°
2026-05-05 01:14 42.02586 -72.13532 33909 ft 413 kts 264°
2026-05-05 01:15 42.01447 -72.21050 33915 ft 414 kts 264°
2026-05-05 01:15 42.00300 -72.28599 33907 ft 412 kts 264°
2026-05-05 01:16 41.99148 -72.36159 33906 ft 414 kts 264°
2026-05-05 01:16 41.98002 -72.43639 33902 ft 410 kts 264°
2026-05-05 01:17 41.96845 -72.51156 33903 ft 413 kts 264°
2026-05-05 01:17 41.95687 -72.58646 33903 ft 412 kts 264°
2026-05-05 01:18 41.94254 -72.66084 33898 ft 417 kts 255°
2026-05-05 01:18 41.92968 -72.69627 33897 ft 428 kts 244°
2026-05-05 01:18 41.91185 -72.72895 33898 ft 434 kts 236°
2026-05-05 01:19 41.87095 -72.78823 33894 ft 436 kts 231°
2026-05-05 01:19 41.82814 -72.84583 33895 ft 436 kts 231°
2026-05-05 01:20 41.78525 -72.90335 33898 ft 438 kts 231°
2026-05-05 01:20 41.74223 -72.96149 33900 ft 439 kts 231°
2026-05-05 01:21 41.69953 -73.01945 33900 ft 437 kts 231°
2026-05-05 01:21 41.65694 -73.07735 33903 ft 438 kts 231°
2026-05-05 01:22 41.61459 -73.13491 33910 ft 438 kts 231°
2026-05-05 01:22 41.57187 -73.19287 33902 ft 439 kts 231°
2026-05-05 01:23 41.52920 -73.25063 33902 ft 438 kts 231°
2026-05-05 01:23 41.48645 -73.30841 33905 ft 438 kts 231°
2026-05-05 01:24 41.44368 -73.36609 33910 ft 439 kts 231°
2026-05-05 01:24 41.40062 -73.42404 33903 ft 439 kts 231°
2026-05-05 01:25 41.35797 -73.48132 33900 ft 439 kts 231°
2026-05-05 01:25 41.31472 -73.53933 33903 ft 441 kts 231°
2026-05-05 01:26 41.27241 -73.59746 33908 ft 437 kts 234°
2026-05-05 01:26 41.23366 -73.65934 33907 ft 435 kts 236°
2026-05-05 01:27 41.19638 -73.72205 33907 ft 435 kts 237°
2026-05-05 01:27 41.15881 -73.78505 33905 ft 436 kts 236°
2026-05-05 01:28 41.12131 -73.84788 33904 ft 435 kts 237°
2026-05-05 01:28 41.08395 -73.91109 33903 ft 436 kts 237°
2026-05-05 01:29 41.04662 -73.97409 33901 ft 436 kts 237°
2026-05-05 01:29 41.00906 -74.03716 33860 ft 435 kts 237°
2026-05-05 01:30 40.99055 -74.06811 33515 ft 431 kts 236°
2026-05-05 01:30 40.97210 -74.09890 33030 ft 426 kts 236°
2026-05-05 01:30 40.95372 -74.12955 32411 ft 425 kts 236°
2026-05-05 01:30 40.93549 -74.15995 31727 ft 426 kts 236°
2026-05-05 01:31 40.91715 -74.19047 31305 ft 419 kts 236°
2026-05-05 01:31 40.89919 -74.22031 30839 ft 414 kts 236°
2026-05-05 01:31 40.88145 -74.24973 30344 ft 409 kts 236°
2026-05-05 01:31 40.86378 -74.27904 29857 ft 404 kts 236°
2026-05-05 01:32 40.84649 -74.30771 29382 ft 399 kts 236°
2026-05-05 01:32 40.82954 -74.33578 28922 ft 394 kts 236°
2026-05-05 01:32 40.81270 -74.36368 28455 ft 389 kts 236°
2026-05-05 01:32 40.79593 -74.39143 27995 ft 384 kts 236°
2026-05-05 01:33 40.77931 -74.41892 27920 ft 389 kts 236°
2026-05-05 01:33 40.76219 -74.44730 27912 ft 400 kts 236°
2026-05-05 01:33 40.74478 -74.47611 27908 ft 400 kts 235°
2026-05-05 01:33 40.72737 -74.50479 27913 ft 398 kts 236°
2026-05-05 01:34 40.71008 -74.53323 27915 ft 401 kts 236°
2026-05-05 01:34 40.69283 -74.56158 27911 ft 400 kts 235°
2026-05-05 01:34 40.67538 -74.59024 27916 ft 400 kts 235°
2026-05-05 01:34 40.65789 -74.61892 27913 ft 400 kts 235°
2026-05-05 01:35 40.64064 -74.64720 27911 ft 400 kts 235°
2026-05-05 01:35 40.62323 -74.67571 27910 ft 400 kts 234°
2026-05-05 01:35 40.60576 -74.70430 27912 ft 401 kts 234°
2026-05-05 01:35 40.58826 -74.73291 27909 ft 400 kts 234°
2026-05-05 01:36 40.57044 -74.76122 27912 ft 401 kts 233°
2026-05-05 01:36 40.55206 -74.78820 27914 ft 402 kts 231°
2026-05-05 01:36 40.53278 -74.81529 27914 ft 404 kts 230°
2026-05-05 01:36 40.51329 -74.84226 27913 ft 404 kts 230°
2026-05-05 01:37 40.49408 -74.86878 27912 ft 403 kts 230°
2026-05-05 01:37 40.47463 -74.89574 27912 ft 405 kts 230°
2026-05-05 01:37 40.45556 -74.92226 27912 ft 405 kts 230°
2026-05-05 01:37 40.43611 -74.94943 27757 ft 405 kts 230°
2026-05-05 01:38 40.41700 -74.97618 27435 ft 399 kts 230°
2026-05-05 01:38 40.39831 -75.00236 27005 ft 393 kts 231°
2026-05-05 01:38 40.37967 -75.02849 26538 ft 388 kts 230°
2026-05-05 01:38 40.36147 -75.05402 26068 ft 384 kts 231°
2026-05-05 01:39 40.34349 -75.07925 25599 ft 379 kts 231°
2026-05-05 01:39 40.32548 -75.10452 25126 ft 375 kts 231°
2026-05-05 01:39 40.30808 -75.12892 24662 ft 370 kts 231°
2026-05-05 01:39 40.29055 -75.15346 24199 ft 366 kts 231°
2026-05-05 01:40 40.27328 -75.17762 23744 ft 361 kts 231°
2026-05-05 01:40 40.25626 -75.20142 23283 ft 357 kts 231°
2026-05-05 01:40 40.23951 -75.22482 22836 ft 353 kts 231°
2026-05-05 01:40 40.22286 -75.24809 22392 ft 348 kts 231°
2026-05-05 01:41 40.20641 -75.27104 21954 ft 344 kts 231°
2026-05-05 01:41 40.19023 -75.29360 21513 ft 340 kts 230°
2026-05-05 01:41 40.17426 -75.31585 21086 ft 340 kts 230°
2026-05-05 01:41 40.15763 -75.33907 20627 ft 355 kts 230°
2026-05-05 01:42 40.14076 -75.36261 20153 ft 355 kts 230°
2026-05-05 01:42 40.12400 -75.38586 19916 ft 345 kts 230°
2026-05-05 01:42 40.10763 -75.40855 19923 ft 347 kts 230°
2026-05-05 01:42 40.09106 -75.43156 19920 ft 350 kts 230°
2026-05-05 01:43 40.07435 -75.45473 19926 ft 350 kts 230°
2026-05-05 01:43 40.05781 -75.47765 19922 ft 350 kts 230°
2026-05-05 01:43 40.04104 -75.50086 19923 ft 350 kts 230°
2026-05-05 01:43 40.02444 -75.52382 19920 ft 351 kts 230°
2026-05-05 01:44 40.00769 -75.54697 19925 ft 351 kts 230°
2026-05-05 01:44 39.99093 -75.57011 19923 ft 352 kts 229°
2026-05-05 01:44 39.97433 -75.59303 19929 ft 351 kts 229°
2026-05-05 01:44 39.95759 -75.61610 19926 ft 351 kts 229°
2026-05-05 01:45 39.94087 -75.63913 19929 ft 351 kts 230°
2026-05-05 01:45 39.92406 -75.66271 19926 ft 351 kts 231°
2026-05-05 01:45 39.90881 -75.68725 19922 ft 349 kts 235°
2026-05-05 01:45 39.89473 -75.71298 19924 ft 349 kts 238°
2026-05-05 01:46 39.88129 -75.73898 19923 ft 350 kts 238°
2026-05-05 01:46 39.86776 -75.76555 19920 ft 351 kts 238°
2026-05-05 01:46 39.85438 -75.79176 19919 ft 350 kts 238°
2026-05-05 01:46 39.84094 -75.81796 19945 ft 351 kts 238°
2026-05-05 01:47 39.82725 -75.84448 19900 ft 349 kts 238°
2026-05-05 01:47 39.81379 -75.87039 19916 ft 349 kts 238°
2026-05-05 01:47 39.80024 -75.89644 19912 ft 350 kts 238°
2026-05-05 01:47 39.78644 -75.92286 19914 ft 350 kts 237°
2026-05-05 01:48 39.77296 -75.94862 19910 ft 350 kts 237°
2026-05-05 01:48 39.75930 -75.97469 19921 ft 350 kts 237°
2026-05-05 01:48 39.74549 -76.00101 19915 ft 351 kts 237°
2026-05-05 01:48 39.73179 -76.02709 19857 ft 352 kts 237°
2026-05-05 01:49 39.71802 -76.05330 19597 ft 350 kts 237°
2026-05-05 01:49 39.70459 -76.07883 19240 ft 343 kts 237°
2026-05-05 01:49 39.69107 -76.10450 18804 ft 339 kts 237°
2026-05-05 01:49 39.67799 -76.12938 18338 ft 335 kts 237°
2026-05-05 01:50 39.66486 -76.15432 17884 ft 332 kts 237°
2026-05-05 01:50 39.65210 -76.17853 17505 ft 326 kts 238°
2026-05-05 01:50 39.63945 -76.20252 17093 ft 322 kts 238°
2026-05-05 01:50 39.62687 -76.22636 16649 ft 319 kts 238°
2026-05-05 01:51 39.61433 -76.25012 16200 ft 316 kts 238°
2026-05-05 01:51 39.60204 -76.27308 15764 ft 313 kts 237°
2026-05-05 01:51 39.58852 -76.29513 15349 ft 310 kts 231°
2026-05-05 01:51 39.57271 -76.31401 14932 ft 310 kts 222°
2026-05-05 01:52 39.55537 -76.33035 14513 ft 308 kts 219°
2026-05-05 01:52 39.53760 -76.34551 14096 ft 306 kts 218°
2026-05-05 01:52 39.51976 -76.36041 13698 ft 303 kts 218°
2026-05-05 01:52 39.50219 -76.37520 13270 ft 301 kts 218°
2026-05-05 01:53 39.48485 -76.39002 12849 ft 298 kts 219°
2026-05-05 01:53 39.46748 -76.40508 12444 ft 312 kts 219°
2026-05-05 01:53 39.44945 -76.42082 12030 ft 312 kts 219°
2026-05-05 01:53 39.43153 -76.43636 12007 ft 309 kts 219°
2026-05-05 01:54 39.41352 -76.45198 11982 ft 313 kts 219°
2026-05-05 01:54 39.39554 -76.46755 12002 ft 313 kts 219°
2026-05-05 01:54 39.37728 -76.48338 12005 ft 314 kts 219°
2026-05-05 01:54 39.35928 -76.49896 12002 ft 313 kts 219°
2026-05-05 01:55 39.34109 -76.51471 12001 ft 314 kts 219°
2026-05-05 01:55 39.32301 -76.53035 11999 ft 313 kts 219°
2026-05-05 01:55 39.30501 -76.54593 12000 ft 314 kts 219°
2026-05-05 01:55 39.28682 -76.56163 11885 ft 310 kts 219°
2026-05-05 01:56 39.26901 -76.57696 11531 ft 305 kts 219°
2026-05-05 01:56 39.25155 -76.59198 11122 ft 302 kts 219°
2026-05-05 01:56 39.23418 -76.60692 10714 ft 300 kts 219°
2026-05-05 01:56 39.21694 -76.62170 10399 ft 294 kts 219°
2026-05-05 01:57 39.20031 -76.63593 10244 ft 282 kts 219°
2026-05-05 01:57 39.18424 -76.64967 10154 ft 269 kts 220°
2026-05-05 01:57 39.16923 -76.66325 10011 ft 259 kts 224°
2026-05-05 01:57 39.15559 -76.67852 10005 ft 261 kts 228°
2026-05-05 01:58 39.14244 -76.69443 9997 ft 261 kts 229°
2026-05-05 01:58 39.12923 -76.71053 10000 ft 263 kts 229°
2026-05-05 01:58 39.11586 -76.72661 10003 ft 262 kts 228°
2026-05-05 01:58 39.10250 -76.74253 9999 ft 263 kts 228°
2026-05-05 01:59 39.08897 -76.75854 10002 ft 262 kts 228°
2026-05-05 01:59 39.07558 -76.77437 9998 ft 262 kts 228°
2026-05-05 01:59 39.06218 -76.79026 10002 ft 263 kts 228°
2026-05-05 01:59 39.04870 -76.80621 10001 ft 263 kts 228°
2026-05-05 02:00 39.03531 -76.82201 10006 ft 262 kts 228°
2026-05-05 02:00 39.02182 -76.83793 10010 ft 263 kts 228°
2026-05-05 02:00 39.00839 -76.85377 10008 ft 263 kts 227°
2026-05-05 02:00 38.99476 -76.86987 10008 ft 263 kts 227°
2026-05-05 02:01 38.98205 -76.88644 10008 ft 259 kts 236°
2026-05-05 02:01 38.97379 -76.90633 10008 ft 251 kts 258°
2026-05-05 02:01 38.97244 -76.92818 9917 ft 240 kts 274°
2026-05-05 02:01 38.97357 -76.94928 9639 ft 237 kts 274°
2026-05-05 02:02 38.97452 -76.97021 9325 ft 235 kts 273°
2026-05-05 02:02 38.97528 -76.99107 9014 ft 233 kts 273°
2026-05-05 02:02 38.97620 -77.01154 8706 ft 230 kts 276°
2026-05-05 02:02 38.98049 -77.03104 8407 ft 229 kts 297°
2026-05-05 02:03 38.99098 -77.04660 8133 ft 237 kts 313°
2026-05-05 02:03 39.00384 -77.06116 7782 ft 249 kts 314°
2026-05-05 02:03 39.01662 -77.07593 7459 ft 248 kts 313°
2026-05-05 02:03 39.02923 -77.09094 7128 ft 245 kts 312°
2026-05-05 02:04 39.04141 -77.10576 6820 ft 242 kts 311°
2026-05-05 02:04 39.05355 -77.12086 6488 ft 240 kts 311°
2026-05-05 02:04 39.06550 -77.13583 6064 ft 243 kts 311°
2026-05-05 02:04 39.07758 -77.15094 5666 ft 244 kts 311°
2026-05-05 02:05 39.08876 -77.16697 5227 ft 241 kts 296°
2026-05-05 02:05 39.09224 -77.18750 4839 ft 234 kts 262°
2026-05-05 02:05 39.08630 -77.20667 4501 ft 234 kts 237°
2026-05-05 02:05 39.07483 -77.22130 4115 ft 239 kts 217°
2026-05-05 02:06 39.05973 -77.23023 3793 ft 242 kts 201°
2026-05-05 02:06 39.04288 -77.23192 3431 ft 252 kts 174°
2026-05-05 02:06 39.02681 -77.22224 3117 ft 260 kts 148°
2026-05-05 02:06 39.01329 -77.20734 3001 ft 252 kts 143°
2026-05-05 02:07 39.00076 -77.19248 3005 ft 236 kts 143°
2026-05-05 02:07 38.98879 -77.17880 3011 ft 220 kts 145°
2026-05-05 02:07 38.97766 -77.16663 3002 ft 206 kts 146°
2026-05-05 02:07 38.96698 -77.15423 2725 ft 210 kts 141°
2026-05-05 02:08 38.95696 -77.14097 2581 ft 208 kts 139°
2026-05-05 02:08 38.94715 -77.12761 2550 ft 198 kts 141°
2026-05-05 02:08 38.93653 -77.11669 2300 ft 194 kts 154°
2026-05-05 02:08 38.92548 -77.10824 2144 ft 174 kts 158°
2026-05-05 02:09 38.91546 -77.10159 1920 ft 160 kts 159°
2026-05-05 02:09 38.90727 -77.09166 1514 ft 172 kts 125°
2026-05-05 02:09 38.90305 -77.07782 1290 ft 159 kts 117°
2026-05-05 02:09 38.89834 -77.06562 942 ft 149 kts 133°
2026-05-05 02:10 38.89135 -77.05634 721 ft 138 kts 144°
2026-05-05 02:10 38.88403 -77.04842 559 ft 140 kts 143°
2026-05-05 02:10 38.87613 -77.04129 368 ft 139 kts 160°
2026-05-05 02:10 38.86667 -77.03925 154 ft 138 kts 178°
2026-05-05 02:11 38.85722 -77.03839 20 ft 128 kts 174°
2026-05-05 02:11 38.85149 -77.03775 22 ft 36 kts 175°
2026-05-05 02:11 38.84954 -77.03759 20 ft 17 kts 188°
2026-05-05 02:11 38.84885 -77.03823 20 ft 11 kts 250°
2026-05-05 02:12 38.84877 -77.03906 22 ft 7 kts 266°
2026-05-05 02:12 38.84942 -77.03955 23 ft 8 kts 354°
2026-05-05 02:12 38.85008 -77.03962 23 ft 9 kts 355°
2026-05-05 02:13 38.85075 -77.03969 23 ft 9 kts 355°
2026-05-05 02:13 38.85144 -77.03976 23 ft 10 kts 356°
2026-05-05 02:13 38.85226 -77.03983 23 ft 12 kts 355°
2026-05-05 02:13 38.85313 -77.03992 23 ft 12 kts 356°
2026-05-05 02:14 38.85410 -77.04001 23 ft 14 kts 356°
2026-05-05 02:14 38.85502 -77.04013 24 ft 11 kts 346°
2026-05-05 02:14 38.85537 -77.04085 24 ft 10 kts 258°
2026-05-05 02:14 38.85519 -77.04161 26 ft 7 kts 252°
2026-05-05 02:15 38.85503 -77.04224 28 ft 7 kts 252°
2026-05-05 02:15 38.85479 -77.04247 28 ft 4 kts 177°
2026-05-05 02:15 38.85447 -77.04237 28 ft 3 kts 162°
2026-05-05 02:15 38.85440 -77.04234 28 ft 0 kts 162°